Location: Campillo
(40.8621°N, 4.2488°W)
Time: 11:10:24
(UTC+00:00)

DELTA 2 R/B (1) - Pass Details

Date: 11 May 2021
Orbit: 790 x 803 km, 39.6° (Epoch: 13 June)

Event Time Altitude Azimuth Distance (km) Brightness Sun altitude
Rises 20:43:07 0° 279° (W) 3,289 7.9 -13.5°
Reaches altitude 10° 20:45:40 10° 274° (W) 2,356 6.9 -13.9°
Maximum altitude 20:50:59 47° 202° (SSW) 1,031 4.0 -14.6°
Enters shadow 20:54:07 23° 139° (SE) 1,620 4.6 -15.1°
